Joliet, IL

4:05 AM CDT on September 25, 2017 (GMT -0500)
Joliet Regional

Weather History for KJOT - March, 2013

Change the Weather History Date:

Friday, March 22, 2013

  Actual Average (KARR) Record (KARR)
Temperature  
Mean Temperature 26 °F -  
Max Temperature 39 °F 47 °F 82 °F (2012)
Min Temperature 14 °F 28 °F 13 °F (2002)
Degree Days  
Heating Degree Days 38    
Moisture  
Dew Point 16 °F    
Average Humidity 65    
Maximum Humidity 95    
Minimum Humidity 42    
Precipitation  
Precipitation 0.00 in - - ()
Sea Level Pressure  
Sea Level Pressure 30.04 in    
Wind  
Wind Speed 2 mph (WNW)    
Max Wind Speed 8 mph    
Max Gust Speed -    
Visibility 10 miles    
Events      
Averages and records for this station are not official NWS values.
T = Trace of Precipitation, MM = Missing Value Source: NWS Daily Summary

Daily Weather History Graph

Daily Weather History Graph

Search for Another Location

Airport or City:

Trip Planner

Search our weather history database for the weather conditions in past years. The results will help you decide how hot, cold, wet, or windy it might be!

Date:

Astronomy

Mar. 22, 2013 Rise Set
Actual Time 6:52 AM CDT 7:07 PM CDT
Civil Twilight 6:24 AM CDT 7:35 PM CDT
Nautical Twilight 5:52 AM CDT 8:07 PM CDT
Astronomical Twilight 5:18 AM CDT 8:40 PM CDT
Moon 2:31 PM CDT (3/22) 3:55 AM CDT (3/22)
Length of Visible Light 13h 10m
Length of Day
12h 15m
Waxing Gibbous, 77% of the Moon is Illuminated
Mar 22
Waxing Gibbous
Mar 27
Full
Apr 2
Last Quarter
Apr 10
New
Apr 18
First Quarter

Hourly Weather History & Observations

Time (CDT) Temp. Windchill Dew Point Humidity Pressure Visibility Wind Dir Wind Speed Gust Speed Precip Events Conditions
12:15 AM 22.8 °F - 17.1 °F 79% 30.05 in 10.0 mi Calm Calm - N/A   Clear
12:35 AM 22.1 °F - 16.7 °F 80% 30.04 in 10.0 mi Calm Calm - N/A   Clear
12:55 AM 20.1 °F - 16.2 °F 85% 30.04 in 10.0 mi Calm Calm - N/A   Clear
1:15 AM 18.3 °F - 15.6 °F 89% 30.05 in 10.0 mi Calm Calm - N/A   Clear
1:35 AM 18.3 °F - 16.3 °F 92% 30.05 in 10.0 mi Calm Calm - N/A   Clear
1:55 AM 17.4 °F - 15.8 °F 93% 30.05 in 10.0 mi Calm Calm - N/A   Clear
2:15 AM 18.0 °F - 15.6 °F 91% 30.05 in 10.0 mi Calm Calm - N/A   Clear
2:35 AM 17.2 °F - 15.8 °F 94% 30.05 in 10.0 mi Calm Calm - N/A   Clear
2:55 AM 15.6 °F - 13.1 °F 90% 30.05 in 10.0 mi Calm Calm - N/A   Clear
3:15 AM 16.9 °F - 15.6 °F 95% 30.05 in 10.0 mi Calm Calm - N/A   Clear
3:35 AM 17.4 °F - 15.1 °F 91% 30.04 in 10.0 mi Calm Calm - N/A   Clear
3:55 AM 16.2 °F - 14.2 °F 92% 30.04 in 10.0 mi Calm Calm - N/A   Clear
4:35 AM 16.3 °F - 14.9 °F 94% 30.05 in 10.0 mi Calm Calm - N/A   Clear
4:55 AM 16.2 °F - 14.2 °F 92% 30.05 in 10.0 mi Calm Calm - N/A   Clear
5:15 AM 15.3 °F - 13.5 °F 93% 30.04 in 10.0 mi Calm Calm - N/A   Clear
5:35 AM 14.9 °F - 13.3 °F 93% 30.05 in 10.0 mi Calm Calm - N/A   Clear
6:15 AM 15.1 °F - 13.6 °F 94% 30.06 in 10.0 mi Calm Calm - N/A   Clear
6:35 AM 14.4 °F - 12.7 °F 93% 30.06 in 7.0 mi Calm Calm - N/A   Clear
6:55 AM 14.9 °F - 13.5 °F 94% 30.06 in 7.0 mi Calm Calm - N/A   Clear
7:15 AM 14.9 °F - 13.1 °F 93% 30.06 in 10.0 mi Calm Calm - N/A   Clear
7:35 AM 16.9 °F - 14.9 °F 92% 30.06 in 10.0 mi Calm Calm - N/A   Clear
7:55 AM 20.7 °F - 17.8 °F 89% 30.05 in 10.0 mi Calm Calm - N/A   Clear
8:15 AM 23.5 °F - 16.2 °F 73% 30.05 in 10.0 mi Calm Calm - N/A   Clear
8:35 AM 25.0 °F - 15.8 °F 68% 30.05 in 10.0 mi Calm Calm - N/A   Clear
8:55 AM 26.6 °F - 15.4 °F 63% 30.05 in 10.0 mi Calm Calm - N/A   Clear
9:15 AM 27.5 °F - 14.9 °F 59% 30.06 in 10.0 mi Calm Calm - N/A   Clear
9:35 AM 28.4 °F 23.3 °F 14.9 °F 57% 30.06 in 10.0 mi WSW 4.6 mph - N/A   Clear
10:15 AM 30.6 °F 23.8 °F 14.9 °F 52% 30.06 in 10.0 mi West 6.9 mph - N/A   Clear
10:35 AM 32.0 °F 25.6 °F 15.6 °F 51% 30.06 in 10.0 mi WNW 6.9 mph - N/A   Clear
10:55 AM 32.0 °F 27.5 °F 15.6 °F 51% 30.06 in 10.0 mi West 4.6 mph - N/A   Clear
11:15 AM 32.4 °F 26.0 °F 14.7 °F 48% 30.06 in 10.0 mi West 6.9 mph - N/A   Clear
11:35 AM 33.1 °F 26.9 °F 15.3 °F 48% 30.06 in 10.0 mi West 6.9 mph - N/A   Clear
12:15 PM 34.2 °F 30.0 °F 16.0 °F 47% 30.06 in 10.0 mi WNW 4.6 mph - N/A   Clear
12:35 PM 35.4 °F 30.5 °F 16.7 °F 47% 30.05 in 10.0 mi WSW 5.8 mph - N/A   Clear
12:55 PM 35.6 °F 29.2 °F 16.5 °F 46% 30.05 in 10.0 mi WSW 8.1 mph - N/A   Clear
1:15 PM 36.0 °F 31.1 °F 16.3 °F 45% 30.04 in 10.0 mi WNW 5.8 mph - N/A   Clear
1:35 PM 36.7 °F - 16.7 °F 44% 30.03 in 10.0 mi Calm Calm - N/A   Clear
2:15 PM 36.3 °F 31.6 °F 16.3 °F 44% 30.01 in 10.0 mi West 5.8 mph - N/A   Clear
2:35 PM 37.4 °F 33.8 °F 17.8 °F 45% 30.01 in 10.0 mi SSW 4.6 mph - N/A   Clear
2:55 PM 38.3 °F 34.8 °F 18.0 °F 44% 30.00 in 10.0 mi WNW 4.6 mph - N/A   Clear
3:15 PM 38.5 °F 34.1 °F 17.8 °F 43% 30.00 in 10.0 mi WSW 5.8 mph - N/A   Clear
3:35 PM 37.8 °F - 17.1 °F 43% 30.00 in 10.0 mi Calm Calm - N/A   Clear
3:55 PM 38.8 °F 34.6 °F 17.8 °F 43% 30.00 in 10.0 mi West 5.8 mph - N/A   Clear
4:15 PM 38.8 °F 33.8 °F 18.0 °F 43% 30.01 in 10.0 mi West 6.9 mph - N/A   Clear
4:35 PM 39.2 °F 35.0 °F 18.1 °F 43% 30.01 in 10.0 mi WNW 5.8 mph - N/A   Clear
4:55 PM 39.2 °F 35.0 °F 17.8 °F 42% 30.01 in 10.0 mi NW 5.8 mph - N/A   Clear
5:15 PM 39.2 °F 34.2 °F 18.1 °F 43% 30.01 in 10.0 mi NNW 6.9 mph - N/A   Clear
5:35 PM 39.2 °F 35.9 °F 17.6 °F 42% 30.02 in 10.0 mi West 4.6 mph - N/A   Clear
5:55 PM 38.3 °F 35.9 °F 16.7 °F 42% 30.02 in 10.0 mi NW 3.5 mph - N/A   Clear
6:15 PM 37.9 °F 35.5 °F 17.1 °F 43% 30.03 in 10.0 mi NW 3.5 mph - N/A   Clear
6:35 PM 36.7 °F 32.9 °F 16.9 °F 45% 30.03 in 10.0 mi NNW 4.6 mph - N/A   Clear
6:55 PM 34.9 °F 29.9 °F 17.2 °F 49% 30.03 in 10.0 mi North 5.8 mph - N/A   Clear
7:15 PM 33.6 °F 29.4 °F 17.4 °F 52% 30.03 in 10.0 mi North 4.6 mph - N/A   Clear
7:35 PM 33.3 °F 28.9 °F 17.6 °F 53% 30.02 in 10.0 mi North 4.6 mph - N/A   Clear
7:55 PM 32.7 °F - 17.6 °F 54% 30.03 in 10.0 mi Calm Calm - N/A   Clear
8:15 PM 32.9 °F - 17.2 °F 53% 30.03 in 10.0 mi Calm Calm - N/A   Clear
8:35 PM 32.4 °F - 17.4 °F 54% 30.04 in 10.0 mi Calm Calm - N/A   Clear
8:55 PM 32.0 °F 28.7 °F 17.6 °F 55% 30.05 in 10.0 mi NNW 3.5 mph - N/A   Clear
9:35 PM 31.3 °F 27.9 °F 18.5 °F 59% 30.06 in 10.0 mi North 3.5 mph - N/A   Clear
9:55 PM 30.6 °F 25.8 °F 19.2 °F 63% 30.06 in 10.0 mi NNE 4.6 mph - N/A   Clear
10:15 PM 30.9 °F - 18.9 °F 61% 30.06 in 10.0 mi Calm Calm - N/A   Clear
10:35 PM 30.0 °F - 18.9 °F 63% 30.06 in 10.0 mi Calm Calm - N/A   Clear
11:15 PM 29.3 °F 24.3 °F 19.9 °F 68% 30.05 in 10.0 mi ENE 4.6 mph - N/A   Clear
11:35 PM 29.8 °F - 20.3 °F 68% 30.05 in 10.0 mi Calm Calm - N/A   Clear
11:55 PM 29.5 °F 25.9 °F 20.7 °F 70% 30.05 in 10.0 mi NE 3.5 mph - N/A   Clear